Back to Top

Language: 

My Weather Underground Personal Weather Station Historical Data with Graphs...

Delerius Weather Station Historical Data
Daily Summary for January 10, 2018 Units:  English    Metric   Both
« Previous Day
Next Day »
Daily Weekly Monthly Yearly Custom
  High: Low: Average:
Temperature: 46.9 °F 40.3 °F 45 °F
Dew Point: 46.1 °F 39.8 °F 43.4 °F
Humidity: 98 % 90 % 94 %
Wind Speed: 7.0 mph 0.0 mph 2.7 mph
Wind Gust: 11.0 mph - -
Wind:- - NW
Pressure: 29.71 in 29.63 in -
Precipitation: 0.03 in    
Historical Graphs
 
 
Tabular Data for January 10, 2018
Time Temperature Dew Point Pressure Wind Wind Speed Wind Gust Humidity Rainfall Rate (Hourly) solar Conditions
09:37 40.3 °F 39.8 °F 29.63 in Calm     98 % 0.01 in 18 W/m2
12:19 43.5 °F 43.0 °F 29.64 in Calm     98 % 0.00 in 118 W/m2
12:58 45.9 °F 45.3 °F 29.64 in NW 1.0 mph 4.0 mph 98 % 0.00 in 250 W/m2
13:04 45.9 °F 45.3 °F 29.64 in NW 3.0 mph 5.0 mph 98 % 0.00 in 120 W/m2
13:12 45.7 °F 45.1 °F 29.63 in Calm   2.0 mph 98 % 0.00 in 97 W/m2
13:25 45.3 °F 44.8 °F 29.64 in NW 2.0 mph 6.0 mph 98 % 0.00 in 192 W/m2
13:33 45.5 °F 45.0 °F 29.64 in WNW 1.0 mph 7.0 mph 98 % 0.00 in 118 W/m2
14:18 46.4 °F 45.9 °F 29.65 in Calm   1.0 mph 98 % 0.00 in 193 W/m2
14:39 46.9 °F 46.1 °F 29.65 in Calm   2.0 mph 97 % 0.00 in 56 W/m2
14:49 46.4 °F 45.3 °F 29.66 in NW 3.0 mph 7.0 mph 96 % 0.00 in 56 W/m2
15:00 46.0 °F 44.7 °F 29.66 in NW 1.0 mph 2.0 mph 95 % 0.00 in 56 W/m2
15:06 46.0 °F 44.7 °F 29.66 in Calm   4.0 mph 95 % 0.00 in 51 W/m2
15:17 46.0 °F 44.7 °F 29.67 in NW 2.0 mph 4.0 mph 95 % 0.00 in 28 W/m2
15:26 45.9 °F 44.2 °F 29.67 in Calm   3.0 mph 94 % 0.00 in 26 W/m2
15:33 45.9 °F 44.2 °F 29.67 in Calm   2.0 mph 94 % 0.00 in 18 W/m2
15:39 45.9 °F 44.2 °F 29.68 in NW 1.0 mph 5.0 mph 94 % 0.00 in 14 W/m2
15:46 45.5 °F 43.6 °F 29.68 in WNW 5.0 mph 9.0 mph 93 % 0.00 in 11 W/m2
15:54 45.1 °F 43.2 °F 29.68 in NW 3.0 mph 6.0 mph 93 % 0.00 in 9 W/m2
16:12 45.0 °F 42.8 °F 29.68 in NW 4.0 mph 8.0 mph 92 % 0.00 in 5 W/m2
16:22 44.8 °F 42.3 °F 29.69 in NW 4.0 mph 9.0 mph 91 % 0.00 in 0 W/m2
16:30 44.8 °F 42.3 °F 29.69 in NW 6.0 mph 11.0 mph 91 % 0.00 in 0 W/m2
16:44 44.6 °F 41.8 °F 29.70 in NW 6.0 mph 10.0 mph 90 % 0.00 in 0 W/m2
16:50 44.4 °F 41.7 °F 29.70 in NW 7.0 mph 11.0 mph 90 % 0.00 in 0 W/m2
17:02 44.4 °F 41.7 °F 29.70 in NW 5.0 mph 9.0 mph 90 % 0.00 in 0 W/m2
17:12 44.2 °F 41.8 °F 29.70 in NW 6.0 mph 9.0 mph 91 % 0.00 in 0 W/m2
17:26 44.1 °F 41.6 °F 29.70 in NW 5.0 mph 10.0 mph 91 % 0.00 in 0 W/m2
17:36 43.9 °F 41.4 °F 29.70 in NW 4.0 mph 8.0 mph 91 % 0.00 in 0 W/m2
17:49 43.5 °F 41.1 °F 29.71 in NW 5.0 mph 8.0 mph 91 % 0.00 in 0 W/m2
17:58 43.3 °F 40.9 °F 29.71 in NW 4.0 mph 8.0 mph 91 % 0.00 in 0 W/m2
Delerius-Weather
Compliments of Weather Underground - 1.5 mb

Data updates at regular intervals.